Погода в Чарске

Казахстан     49°35′05″N   81°02′49″E
темп.,
°C
ветер,
м/с
пор.,
м/с
влажн.,
%
обл.,
%
осадки,
мм/ч
давл.,
гПа
погр.,
м
26 февраля, пт
пт2600:00−22зюз6147798 0.0 1037364
03:00−25юз597973 0.0 1040147
06:00−27юз458151 0.0 104371
09:00−26ю358323 0.0 1043122
12:00−21юз587760 0.0 1043567
15:00−19юз4674100 0.0 1042768
18:00−20ю2282100 0.0 104221
21:00−21ююз3784100 0.0 1043145
27 февраля, сб
сб2700:00−25ю338097 0.0 104230
03:00−27ю337970 0.0 104120
06:00−27ю238080 0.0 104119
09:00−26ююз22810 0.0 104220
12:00−20ю24740 0.0 1040344
15:00−16ююз24760 0.0 1039524
18:00−21в229219 0.0 103920
21:00−18ююв348894 0.0 104079
28 февраля, вс
вс2800:00−18ююв478597 0.0 1040101
03:00−19ююв478676 0.0 1039106
06:00−18ююв5108482 0.0 1038179
09:00−15ююв8137897 0.0 1038332
12:00−12ююв9147798 0.0 1035484
15:00−11ююв101576100 0.0 1033520
18:00−11ююв111874100 0.0 1031471
21:00−10ююв111882100 0.0 1030496
1 марта, пн
пн100:00−9ююв111984100 0.8 1029516
03:00−9ююв111878100 0.1 1028474
06:00−9ююв121874100 0.1 1027448
09:00−8ююв111773100 0.0 1026448
12:00−7ююв101478100 0.1 1025502
15:00−6ююв91387100 0.5 1024461
18:00−6ююв81384100 1.4 1023351
21:00−5ююв71282100 0.2 1023327
2 марта, вт
вт200:00−3ююв71283100 0.8 1023377
03:00−3ююв61081100 0.1 1023305
06:00−4ю6996100 2.8 1023401
09:00−3ююз5996100 3.4 1023472
12:00−1юз5896100 5.1 1022507
15:000юз5995100 1.1 1020595
18:00−1ююз51193100 1.4 1019490
21:00−2ююз51293100 0.8 1018496